#timestamp,LO_Frequency,Hit,StdDev 
1506398415.5,286047001.6,N
1506398435.5,286047002.8,N
1506398455.4,286047000.2,N
1506398475.2,286047002.7,N
1506398495.0,286047002.6,N
1506398495.9,286047002.6,N
1506398515.8,286047001.5,N
1506398535.6,286047001.3,N
1506398555.5,286047002.6,N
1506398575.3,286047002.4,N
1506398595.1,286047000.1,N
1506398615.9,286047002.6,N
1506398635.7,286047004.1,Y
1506398655.6,286047000.3,P
1506398675.4,286046998.6,N
1506398695.2,286047000.2,N
1506398715.1,286047000.2,N
1506398716.0,286047000.2,N
1506398735.8,286047001.0,N
1506398755.6,286046998.2,N
1506398775.5,286046998.1,N
1506398795.3,286046998.2,N
1506398815.2,286046998.2,N
1506398835.9,286046999.3,N
1506398855.7,286046996.6,N
1506398875.6,286046997.5,N
1506398895.4,286046997.8,N
1506398915.3,286046997.9,N
1506398935.1,286046997.5,N
1506398936.0,286046997.5,N
1506398955.8,286046997.1,N
1506398975.7,286046999.0,N
1506398995.5,286046999.5,N
1506399015.3,286046997.1,N
1506399035.2,286046997.0,N
1506399055.0,286046997.7,N
1506399055.9,286046997.7,N
1506399075.8,286046996.7,N
1506399095.6,286046997.2,N
1506399115.4,286046996.9,N
1506399135.3,286046996.7,N
1506399155.1,286046994.9,Y
1506399175.9,286046996.8,P
1506399195.7,286046999.1,N
1506399215.5,286046997.1,P
1506399235.4,286046996.8,Y
1506399255.2,286047000.0,P
1506399275.1,286047002.6,N
1506399276.0,286047002.6,N
1506399295.8,286047002.8,N
1506399315.6,286047002.8,N
1506399335.5,286047000.3,N
1506399355.3,286047000.1,N
1506399375.2,286047002.4,N
1506399395.9,286047002.6,N
1506399415.7,286047002.4,N
1506399435.6,286047002.4,N
1506399455.4,286047002.6,N
1506399475.3,286047001.9,N
1506399495.1,286047002.3,N
1506399496.0,286047002.3,N
1506399515.8,286047002.3,N
1506399535.7,286047000.1,N
1506399555.5,286047002.0,N
1506399575.3,286047002.6,N
1506399595.2,286047000.2,N
1506399615.0,286047001.9,N
1506399615.9,286047001.9,N
1506399635.8,286047001.5,N
1506399655.6,286047003.2,N
1506399675.4,286047003.8,Y
1506399695.3,286047002.4,P
1506399715.1,286047002.7,P
1506399735.9,286047002.7,P
1506399755.7,286047001.6,Y
1506399775.5,286046998.2,P
1506399795.4,286047000.7,N
1506399815.2,286046998.6,N
1506399835.0,286046998.6,N
1506399836.0,286046998.6,N
1506399855.8,286046998.2,N
1506399875.6,286046998.1,N
1506399895.5,286046998.2,N
1506399915.3,286047000.6,N
1506399935.1,286047001.0,N
1506399955.9,286047001.1,N
1506399975.7,286046998.5,N
1506399995.6,286046998.4,N
1506400015.4,286046998.1,N
1506400035.2,286047000.7,N
1506400055.1,286046999.9,N
1506400056.0,286046999.9,N
1506400075.8,286047000.2,N
1506400095.7,286047000.8,N
1506400115.5,286047001.2,N
1506400135.3,286046998.5,N
1506400155.2,286047000.8,N
1506400175.0,286047001.1,N
1506400175.9,286047001.1,N
1506400195.7,286047000.3,N
1506400215.6,286047000.8,N
1506400235.4,286047000.9,N
1506400255.3,286047000.0,N
1506400275.1,286047000.5,N
1506400295.8,286047002.7,N
1506400315.7,286047000.5,N
1506400335.5,286047000.2,N
1506400355.4,286047000.0,N
1506400375.2,286046999.8,N
1506400395.0,286047002.8,N
1506400395.9,286047002.8,N
1506400415.8,286047002.7,N
1506400435.6,286047000.4,N
1506400455.4,286047000.5,N
1506400475.3,286047000.0,N
1506400495.1,286046999.7,N
1506400515.9,286046999.7,N
1506400535.7,286047002.6,N
1506400555.5,286047002.8,N
1506400575.4,286047001.6,N
1506400595.2,286047001.9,N
1506400615.1,286047002.8,N
1506400616.0,286047002.8,N
1506400635.8,286047000.0,N
1506400655.6,286047000.2,N
1506400675.5,286046999.8,N
1506400695.3,286047001.6,N
1506400715.2,286047002.1,N
1506400735.9,286047002.6,N
1506400755.7,286046999.8,N
1506400775.6,286047001.0,N
1506400795.4,286047000.9,N
1506400815.2,286046998.5,N
1506400835.1,286047001.2,N
1506400836.0,286047001.2,N
1506400855.8,286046999.4,N
1506400875.7,286047000.6,N
1506400895.5,286047000.5,N
1506400915.3,286047001.0,N
1506400935.2,286047002.8,N
1506400955.0,286047000.5,N
1506400955.9,286047000.5,N
1506400975.8,286047002.6,N
1506400995.6,286046999.9,N
1506401015.4,286047000.7,N
1506401035.3,286047000.2,N
1506401055.1,286046999.9,N
1506401075.9,286047001.9,N
1506401095.7,286047003.9,Y
1506401115.5,286047002.0,P
1506401135.4,286047001.6,P
1506401155.2,286047004.4,P
1506401205.1,286047004.1,E
1506401215.9,286046999.7,N
1506401235.7,286046996.8,P
1506401255.6,286046997.1,N
1506401275.4,286046997.4,N
1506401295.2,286046997.6,N
1506401315.1,286046997.0,N
1506401316.0,286046997.0,Y
1506401335.8,286047001.2,P
1506401355.7,286047000.9,N
1506401375.5,286046999.9,N
1506401395.3,286047000.6,N
1506401415.2,286047002.8,N
1506401435.0,286046999.7,N
1506401435.9,286046999.7,N
1506401455.8,286046999.7,N
1506401475.6,286047000.0,N
1506401495.4,286047000.6,N
1506401515.3,286047001.0,N
1506401535.1,286047000.6,N
1506401555.8,286046999.4,N
1506401575.7,286047001.1,N
1506401595.5,286046999.4,N
1506401615.4,286046999.1,N
1506401635.2,286046998.5,N
1506401655.0,286046998.3,N
1506401655.9,286046998.3,N
1506401675.8,286046998.8,N
1506401695.6,286046998.2,N
1506401715.5,286046998.6,N
1506401735.3,286047000.9,N
1506401755.1,286047000.8,N
1506401775.9,286047000.6,N
1506401795.7,286047001.0,N
1506401815.5,286047000.6,N
1506401835.4,286046999.4,N
1506401855.2,286046999.3,N
1506401875.1,286046997.0,N
1506401876.0,286046997.0,N
1506401895.8,286047001.1,N
1506401915.6,286046998.6,N
1506401935.5,286046998.9,N
1506401955.3,286046999.4,N
1506401975.2,286046999.1,N
1506401995.9,286046998.3,N
